PUA1502 SABE-SUMU

Flight info

Callsign PUA1502
Flight time 0h 28m
Altitude 17000
Route DORVO8 DORVO A305 TOKAM
Aircraft A320/M-SDE3FGHIRWY/LB1

Departure

Time 2026-05-08 14:01
Airport Aeroparque Jorge Newbery (SABE)

Arrival

Time 2026-05-08 14:29
Airport Carrasco General Cesáreo L. Berisso International Airport (SUMU)
Time Latitude Longitude Altitude Speed Heading
2026-05-08 13:40 -34.55795 -58.41247 26 ft 0 kts 36°
2026-05-08 13:46 -34.55796 -58.41247 25 ft 0 kts 36°
2026-05-08 13:49 -34.55796 -58.41248 25 ft 0 kts 36°
2026-05-08 13:52 -34.55809 -58.41259 25 ft 4 kts 27°
2026-05-08 13:53 -34.55834 -58.41270 29 ft 4 kts
2026-05-08 13:53 -34.55856 -58.41263 31 ft 4 kts 290°
2026-05-08 13:53 -34.55857 -58.41251 28 ft 1 kts 249°
2026-05-08 13:53 -34.55856 -58.41249 28 ft 1 kts 249°
2026-05-08 13:56 -34.55867 -58.41277 28 ft 5 kts 240°
2026-05-08 13:56 -34.55899 -58.41301 27 ft 6 kts 191°
2026-05-08 13:56 -34.55936 -58.41283 27 ft 6 kts 133°
2026-05-08 13:56 -34.55964 -58.41238 29 ft 7 kts 126°
2026-05-08 13:57 -34.55996 -58.41186 25 ft 8 kts 127°
2026-05-08 13:57 -34.56034 -58.41126 27 ft 10 kts 127°
2026-05-08 13:57 -34.56080 -58.41053 28 ft 12 kts 127°
2026-05-08 13:57 -34.56133 -58.40968 27 ft 11 kts 123°
2026-05-08 13:58 -34.56161 -58.40905 28 ft 6 kts 116°
2026-05-08 13:58 -34.56181 -58.40853 28 ft 13 kts 114°
2026-05-08 13:58 -34.56220 -58.40749 27 ft 12 kts 116°
2026-05-08 13:58 -34.56261 -58.40672 27 ft 10 kts 123°
2026-05-08 13:59 -34.56294 -58.40612 26 ft 7 kts 123°
2026-05-08 13:59 -34.56329 -58.40560 30 ft 11 kts 135°
2026-05-08 13:59 -34.56384 -58.40500 28 ft 10 kts 139°
2026-05-08 13:59 -34.56433 -58.40448 28 ft 9 kts 140°
2026-05-08 14:00 -34.56478 -58.40399 28 ft 9 kts 136°
2026-05-08 14:00 -34.56536 -58.40394 25 ft 12 kts 211°
2026-05-08 14:00 -34.56529 -58.40495 25 ft 17 kts 303°
2026-05-08 14:00 -34.56342 -58.40837 26 ft 84 kts 304°
2026-05-08 14:01 -34.55902 -58.41630 28 ft 140 kts 302°
2026-05-08 14:01 -34.55328 -58.42640 545 ft 145 kts 300°
2026-05-08 14:01 -34.54721 -58.43618 1266 ft 149 kts 309°
2026-05-08 14:01 -34.53725 -58.44245 1704 ft 181 kts 340°
2026-05-08 14:02 -34.52368 -58.43994 2079 ft 217 kts 21°
2026-05-08 14:02 -34.51051 -58.42992 2613 ft 229 kts 32°
2026-05-08 14:02 -34.50086 -58.41429 3127 ft 238 kts 78°
2026-05-08 14:02 -34.50095 -58.39509 3653 ft 231 kts 111°
2026-05-08 14:03 -34.50539 -58.37639 4331 ft 231 kts 112°
2026-05-08 14:03 -34.50987 -58.35768 5005 ft 231 kts 112°
2026-05-08 14:03 -34.51438 -58.33881 5551 ft 239 kts 111°
2026-05-08 14:03 -34.51919 -58.31867 6044 ft 255 kts 110°
2026-05-08 14:04 -34.52413 -58.29764 6754 ft 263 kts 110°
2026-05-08 14:04 -34.52918 -58.27595 7470 ft 272 kts 110°
2026-05-08 14:04 -34.53436 -58.25353 8195 ft 281 kts 110°
2026-05-08 14:04 -34.53977 -58.23038 8944 ft 288 kts 110°
2026-05-08 14:05 -34.54555 -58.20690 9695 ft 292 kts 111°
2026-05-08 14:05 -34.55153 -58.18321 10384 ft 295 kts 111°
2026-05-08 14:05 -34.55764 -58.15916 11093 ft 302 kts 111°
2026-05-08 14:05 -34.56381 -58.13477 11808 ft 308 kts 110°
2026-05-08 14:06 -34.57007 -58.10988 12543 ft 313 kts 110°
2026-05-08 14:06 -34.57642 -58.08446 13334 ft 316 kts 109°
2026-05-08 14:06 -34.58276 -58.05888 14114 ft 316 kts 109°
2026-05-08 14:06 -34.58909 -58.03337 14910 ft 315 kts 109°
2026-05-08 14:07 -34.59541 -58.00788 15680 ft 317 kts 109°
2026-05-08 14:07 -34.60200 -57.98138 15873 ft 340 kts 109°
2026-05-08 14:07 -34.60908 -57.95303 16001 ft 362 kts 109°
2026-05-08 14:07 -34.61659 -57.92293 16156 ft 381 kts 109°
2026-05-08 14:08 -34.62434 -57.89169 16549 ft 391 kts 108°
2026-05-08 14:08 -34.63219 -57.85984 16694 ft 398 kts 108°
2026-05-08 14:08 -34.64019 -57.82733 16713 ft 404 kts 108°
2026-05-08 14:08 -34.64822 -57.79458 16712 ft 406 kts 108°
2026-05-08 14:09 -34.65630 -57.76167 16712 ft 406 kts 108°
2026-05-08 14:09 -34.66435 -57.72887 16711 ft 406 kts 108°
2026-05-08 14:09 -34.67241 -57.69597 16715 ft 405 kts 108°
2026-05-08 14:09 -34.68046 -57.66318 16716 ft 405 kts 108°
2026-05-08 14:10 -34.68852 -57.63039 16718 ft 405 kts 108°
2026-05-08 14:10 -34.69644 -57.59813 16720 ft 405 kts 108°
2026-05-08 14:10 -34.70446 -57.56528 16724 ft 405 kts 108°
2026-05-08 14:10 -34.71242 -57.53242 16726 ft 405 kts 107°
2026-05-08 14:11 -34.71773 -57.49881 16728 ft 406 kts 97°
2026-05-08 14:11 -34.72051 -57.46466 16728 ft 406 kts 96°
2026-05-08 14:11 -34.72333 -57.43057 16731 ft 406 kts 96°
2026-05-08 14:11 -34.72619 -57.39644 16733 ft 406 kts 96°
2026-05-08 14:12 -34.72908 -57.36239 16732 ft 406 kts 97°
2026-05-08 14:12 -34.73197 -57.32829 16731 ft 405 kts 97°
2026-05-08 14:12 -34.73485 -57.29418 16729 ft 406 kts 96°
2026-05-08 14:12 -34.73770 -57.26011 16726 ft 406 kts 96°
2026-05-08 14:13 -34.74053 -57.22598 16726 ft 406 kts 96°
2026-05-08 14:13 -34.74333 -57.19188 16725 ft 406 kts 96°
2026-05-08 14:13 -34.74613 -57.15772 16725 ft 406 kts 96°
2026-05-08 14:13 -34.74891 -57.12353 16724 ft 406 kts 96°
2026-05-08 14:14 -34.75074 -57.10092 16718 ft 406 kts 96°
2026-05-08 14:14 -34.75438 -57.05565 16718 ft 406 kts 96°
2026-05-08 14:14 -34.75711 -57.02144 16717 ft 406 kts 96°
2026-05-08 14:14 -34.75985 -56.98726 16720 ft 407 kts 96°
2026-05-08 14:15 -34.76171 -56.96413 16713 ft 407 kts 96°
2026-05-08 14:15 -34.76447 -56.92984 16721 ft 407 kts 96°
2026-05-08 14:15 -34.76810 -56.88439 16713 ft 408 kts 96°
2026-05-08 14:15 -34.76988 -56.86180 16554 ft 401 kts 96°
2026-05-08 14:16 -34.77252 -56.82847 16289 ft 391 kts 96°
2026-05-08 14:16 -34.77508 -56.79592 16027 ft 383 kts 96°
2026-05-08 14:16 -34.77759 -56.76387 15763 ft 379 kts 96°
2026-05-08 14:16 -34.77988 -56.73218 15508 ft 377 kts 93°
2026-05-08 14:17 -34.77883 -56.70147 15265 ft 376 kts 83°
2026-05-08 14:17 -34.77401 -56.67026 15007 ft 375 kts 79°
2026-05-08 14:17 -34.76881 -56.63923 14750 ft 374 kts 79°
2026-05-08 14:17 -34.76366 -56.60837 14499 ft 371 kts 79°
2026-05-08 14:18 -34.75855 -56.57776 14083 ft 369 kts 79°
2026-05-08 14:18 -34.75346 -56.54719 13630 ft 369 kts 80°
2026-05-08 14:18 -34.74838 -56.51667 13133 ft 369 kts 80°
2026-05-08 14:18 -34.74337 -56.48655 12653 ft 367 kts 80°
2026-05-08 14:19 -34.73833 -56.45632 12199 ft 364 kts 80°
2026-05-08 14:19 -34.73331 -56.42623 11727 ft 362 kts 79°
2026-05-08 14:19 -34.72833 -56.39644 11270 ft 359 kts 79°
2026-05-08 14:19 -34.72336 -56.36677 10810 ft 357 kts 79°
2026-05-08 14:20 -34.71841 -56.33730 10356 ft 355 kts 79°
2026-05-08 14:20 -34.71349 -56.30801 9918 ft 353 kts 79°
2026-05-08 14:20 -34.70854 -56.27884 9478 ft 351 kts 79°
2026-05-08 14:20 -34.70361 -56.24979 8988 ft 350 kts 79°
2026-05-08 14:21 -34.69874 -56.22100 8518 ft 348 kts 79°
2026-05-08 14:21 -34.69390 -56.19246 8045 ft 338 kts 79°
2026-05-08 14:21 -34.68931 -56.16553 7591 ft 324 kts 79°
2026-05-08 14:21 -34.68482 -56.13934 7213 ft 309 kts 79°
2026-05-08 14:22 -34.68058 -56.11447 6914 ft 294 kts 79°
2026-05-08 14:22 -34.67656 -56.09072 6612 ft 282 kts 79°
2026-05-08 14:22 -34.67264 -56.06753 6326 ft 279 kts 79°
2026-05-08 14:22 -34.66875 -56.04466 6031 ft 272 kts 79°
2026-05-08 14:23 -34.66494 -56.02243 5715 ft 269 kts 79°
2026-05-08 14:23 -34.66114 -56.00028 5371 ft 267 kts 79°
2026-05-08 14:23 -34.65736 -55.97817 5039 ft 267 kts 78°
2026-05-08 14:23 -34.65398 -55.95607 4703 ft 266 kts 86°
2026-05-08 14:24 -34.65550 -55.93394 4369 ft 262 kts 109°
2026-05-08 14:24 -34.66282 -55.91407 4032 ft 255 kts 130°
2026-05-08 14:24 -34.67461 -55.89869 3690 ft 245 kts 150°
2026-05-08 14:24 -34.68835 -55.88649 3357 ft 245 kts 152°
2026-05-08 14:25 -34.70322 -55.87751 3201 ft 234 kts 172°
2026-05-08 14:25 -34.71852 -55.87481 3086 ft 217 kts 190°
2026-05-08 14:25 -34.73272 -55.87737 2943 ft 199 kts 206°
2026-05-08 14:25 -34.74483 -55.88404 2755 ft 186 kts 220°
2026-05-08 14:26 -34.75448 -55.89386 2538 ft 177 kts 234°
2026-05-08 14:26 -34.76188 -55.90553 2311 ft 173 kts 238°
2026-05-08 14:26 -34.76903 -55.91719 2086 ft 169 kts 238°
2026-05-08 14:26 -34.77575 -55.92815 1873 ft 153 kts 239°
2026-05-08 14:27 -34.78184 -55.93808 1683 ft 139 kts 239°
2026-05-08 14:27 -34.78742 -55.94721 1486 ft 131 kts 240°
2026-05-08 14:27 -34.79277 -55.95599 1304 ft 128 kts 240°
2026-05-08 14:27 -34.79803 -55.96461 1124 ft 126 kts 240°
2026-05-08 14:28 -34.80328 -55.97322 949 ft 127 kts 240°
2026-05-08 14:28 -34.80854 -55.98183 779 ft 126 kts 239°
2026-05-08 14:28 -34.81374 -55.99035 617 ft 125 kts 239°
2026-05-08 14:28 -34.81895 -55.99890 431 ft 127 kts 240°
2026-05-08 14:29 -34.82425 -56.00742 278 ft 126 kts 240°
2026-05-08 14:29 -34.82937 -56.01590 99 ft 119 kts 240°
2026-05-08 14:29 -34.83344 -56.02276 84 ft 68 kts 233°
2026-05-08 14:29 -34.83497 -56.02532 85 ft 17 kts 232°
2026-05-08 14:30 -34.83574 -56.02661 85 ft 20 kts 234°
2026-05-08 14:30 -34.83671 -56.02802 84 ft 23 kts 232°
2026-05-08 14:30 -34.83801 -56.02864 87 ft 20 kts 167°
2026-05-08 14:30 -34.83858 -56.02839 84 ft 0 kts 166°
2026-05-08 14:31 -34.83857 -56.02839 84 ft 0 kts 166°
2026-05-08 14:32 -34.83859 -56.02839 84 ft 0 kts 166°
2026-05-08 14:32 -34.83887 -56.02836 85 ft 4 kts 170°
2026-05-08 14:33 -34.83922 -56.02820 84 ft 9 kts 152°
2026-05-08 14:33 -34.83962 -56.02786 83 ft 5 kts 138°
2026-05-08 14:33 -34.83973 -56.02716 84 ft 19 kts 77°
2026-05-08 14:33 -34.83944 -56.02556 82 ft 18 kts 92°
2026-05-08 14:34 -34.83947 -56.02425 82 ft 13 kts 87°
2026-05-08 14:34 -34.83946 -56.02330 82 ft 10 kts 91°
2026-05-08 14:34 -34.83873 -56.02241 85 ft 27 kts
2026-05-08 14:34 -34.83745 -56.02181 85 ft 10 kts 56°
2026-05-08 14:35 -34.83715 -56.02128 85 ft 8 kts 54°
2026-05-08 14:35 -34.83662 -56.02041 84 ft 9 kts 53°
2026-05-08 14:35 -34.83641 -56.02007 86 ft 3 kts 53°
2026-05-08 14:35 -34.83633 -56.01994 85 ft 0 kts 53°
2026-05-08 14:38 -34.83650 -56.01963 85 ft 6 kts 160°
2026-05-08 14:39 -34.83687 -56.01940 83 ft 4 kts 143°
2026-05-08 14:39 -34.83701 -56.01926 85 ft 0 kts 141°
2026-05-08 14:46 -34.83700 -56.01926 85 ft 0 kts 141°
2026-05-08 14:47 -34.83700 -56.01927 85 ft 0 kts 141°
2026-05-08 15:07 -34.83699 -56.01927 71 ft 0 kts 141°
2026-05-08 15:08 -34.83699 -56.01928 71 ft 0 kts 141°
2026-05-08 15:26 -34.83698 -56.01928 82 ft 0 kts 141°
2026-05-08 15:28 -34.83698 -56.01929 82 ft 0 kts 141°